Regional Weather Roundup
Issued by NWS

Home | Current Version | Previous Version | Graphics & Text | Print | Product List | Glossary On
Versions: 1 2 3 4 5 6 7 8 9 10 11 12 13 14 15 16 17 18 19 20 21 22 23 24 25 26 27 28 29 30 31 32 33 34 35 36 37 38 39 40 41 42 43 44 45 46 47 48 49 50
000
ASUS43 KLMK 180402
RWRKY
KENTUCKY REGIONAL WEATHER ROUNDUP
NATIONAL WEATHER SERVICE LOUISVILLE KY
1200 AM EDT SAT APR 18 2015

NOTE "FAIR" INDICATES FEW OR NO CLOUDS BELOW 12,000 FEET
WITH NO SIGNIFICANT WEATHER AND/OR OBSTRUCTIONS TO VISIBILITY.

KYZ001>023-026-027-061>063-070>075-180500-
WESTERN AND SOUTH CENTRAL KENTUCKY

CITY           SKY/WX    TMP DP  RH WIND       PRES   REMARKS
PADUCAH        PTCLDY    62  60  93 CALM      30.03R
HENDERSON      CLEAR     57  54  88 CALM      30.03R
OWENSBORO      CLEAR     61  60  96 W6        30.03S
HOPKINSVILLE   CLEAR     61  60  95 N1        30.03R
BOWLING GREEN  PTCLDY    60  56  86 CALM      30.02F
GLASGOW        NOT AVBL
$$

KYZ024-025-028>034-038-045-046-053-180500-
NORTH CENTRAL KENTUCKY

CITY           SKY/WX    TMP DP  RH WIND       PRES   REMARKS
LOUISVILLE/SDF MOCLDY    66  58  75 CALM      30.01F
LOUISVILLE/LOU PTCLDY    62  58  86 CALM      30.02F
FORT KNOX      PTCLDY    59  56  91 CALM      30.00F
$$

KYZ035>037-039>044-047>052-055>060-089>105-180500-
NORTHEAST KENTUCKY

CITY           SKY/WX    TMP DP  RH WIND       PRES   REMARKS
LEXINGTON      CLOUDY    59  58  96 CALM      30.04F
COVINGTON      PTCLDY    59  46  62 CALM      30.04S
FRANKFORT      MOCLDY    58  55  90 N3        30.02F
$$

KYZ054-064>069-076>088-106>120-180500-
SOUTHEAST KENTUCKY

CITY           SKY/WX    TMP DP  RH WIND       PRES   REMARKS
JACKSON        MOCLDY    64  55  72 N3        30.05S
LONDON         PTCLDY    61  54  77 N3        30.04F
SOMERSET       NOT AVBL
MIDDLESBORO    NOT AVBL
MONTICELLO     MOCLDY    56  56 100 CALM      30.07S
$$



USA.gov is the U.S. government's official web portal to all federal, state and local government web resources and services.